Showing default

MUOS 3, 40374

Orbit data source: Space-Track

MUOS 3, 40374 is a payload satellite owned by SPAWAR Pacific (US) in GEO that was launched on Wed, 21 Jan 2015 UTC via an ATLAS V 551 launch vehicle from the Air Force Eastern Test Range (AFETR). Payload-class satellites include a variety of spacecraft equipped with specific instruments for various scientific and technological missions. These include communications satellites like Starlink; space stations such as the ISS; scientific satellites like the Hubble; Earth observation satellites from companies like Planet Labs, Umbra, and HawkEye 360; GPS; miniature CubeSats for education and research; and military/defense satellites.

Not visible in the next 10 days
Identifier
40374, 2015-002A
Orbit
GEO
Country
Flag of USUS
Related business
Manufacturer
LMSS/LMCSS
Mission
Operational Defense Communications
Bus & Motor
A2100, BT-4
Mass
6,800 kg wet, 3,800 kg dry
Launch date (UTC)
2015-01-21 (11 years ago)
Launch vehicle
ATLAS V 551
Launch site
Air Force Eastern Test Range (AFETR)
Object type
Payload
Rocket body
Debris
Shape & HBR
Box + 2 Pan + 1 Dish, 14.3 m
Radar Cross Section
71.298 m², Large (>1 m²)

Expand to show TLE details & history
Last TLE update: 19 hours ago

TLE from 19 hours ago
0 MUOS 3
1 40374U 15002A   25260.22290493 -.00000147  00000-0  00000-0 0  9995
2 40374   4.0031  41.7164 0059466 178.5389 200.8623  1.00270291 38859
Epoch: 2025-09-17T05:20Z
TLE epoch observation values (Epoch: 2025-09-17T05:20:58.985Z)
Latitude
1.29416°
Longitude
-15.82012°
Altitude
36,020.191 km
Speed
3.058 km/s
True Right ascension
04h 03m 18s
True Declination
1° 17' 34"
Sunlit
Object was in daylight at epoch
Visualization orbit readout
Latitude
Unknown
Longitude
Unknown
Altitude
Unknown
Speed
Unknown
Apparent Right ascension
Unknown
Apparent Declination
Unknown
Sunlit
N/A
Visualization observer readout
Local Sidereal Time
16:51:54
Azimuth
Unknown
Elevation
Unknown
Doppler factor
Unknown
Orbital elements
Apogee altitude
36,038.822 km
Perigee altitude
35,537.331 km
Semi-major axis
42,166.214 km
Eccentricity
0.00595
Inclination
4.0031°
RAAN
41.7164°
Arg. of periapsis
178.5389°
True anomaly
200.6213°
Mean anomaly
200.8623°
Eccentric anomaly
200.74163°
Mean motion
0.25067 °/min
Orbital period
1,436.17 mins
BSTAR
0
Loading maneuver chart data...
Computing Atmospheric mass density...
Loading historical data...
Loading historical data...
Loading historical data...
Loading historical data...
Loading historical data...
Loading historical data...
Loading historical data...
Other satellites on launch #2 in the year 2015 (2015-01-21 UTC)

Documentation

Showing up to 5 results
|